Regional Weather Roundup
Issued by NWS

Home | Current Version | Previous Version | Graphics & Text | Print | Product List | Glossary On
Versions: 1 2 3 4 5 6 7 8 9 10 11 12 13 14 15 16 17 18 19 20 21 22 23 24 25 26 27 28 29 30 31 32 33 34 35 36 37 38 39 40 41 42 43 44 45 46 47 48 49 50
000
ASUS43 KFSD 211702
RWRSD

WEATHER ROUNDUP FOR SOUTH DAKOTA
NATIONAL WEATHER SERVICE SIOUX FALLS SD
1100 AM CST FRI NOV 21 2014

NOTE: "FAIR" INDICATES FEW OR NO CLOUDS BELOW 12,000 FEET WITH NO
SIGNIFICANT WEATHER AND/OR OBSTRUCTIONS TO VISIBILITY.


SDZ001>005-009-010-012>017-211800-
NORTHWEST AND NORTH CENTRAL SOUTH DAKOTA

CITY           SKY/WX    TMP DP  RH WIND       PRES   REMARKS
BUFFALO          N/A     43  26  51 W9        29.74R
FAITH            N/A     47  26  44 W9        29.81S
MOBRIDGE       MOSUNNY   27  21  78 S7        29.79S WCI  19
$$

SDZ012>016-024>037-041>051-057-063-072>074-211800-
SOUTHWEST AND SOUTH CENTRAL SOUTH DAKOTA

CITY           SKY/WX    TMP DP  RH WIND       PRES   REMARKS
RAPID CTY ARPT PTSUNNY   47  28  47 CALM      29.83F
PIERRE         MOSUNNY   22  17  81 S5        29.85S WCI  16
CUSTER         MOSUNNY   40  21  46 SW7       29.85S
ELLSWORTH AFB    N/A     43  29  56 NW3       29.83S
PHILIP         MOSUNNY   38  24  57 W12       29.85S
PINE RIDGE     PTSUNNY   41  26  55 CALM      29.88S
WINNER         FAIR      38  26  62 SW18      29.87S
$$

SDZ004>011-016>023-039-040-211800-
NORTHEAST SOUTH DAKOTA

CITY           SKY/WX    TMP DP  RH WIND       PRES   REMARKS
ABERDEEN       SUNNY     24  17  74 S17       29.87F WCI  11
WATERTOWN      SUNNY     25  19  78 S23G31    29.90F WCI  10
SISSETON         N/A     28  21  75 SW17      29.87F WCI  16
$$

SDZ017-020-022-023-036>040-048>070-211800-
SOUTHEAST SOUTH DAKOTA

CITY           SKY/WX    TMP DP  RH WIND       PRES   REMARKS
SIOUX FALLS    PTSUNNY   28  20  71 S21G30    30.02F WCI  15
HURON          MOSUNNY   28  21  75 S14       29.92S WCI  17
CHAMBERLAIN    MOSUNNY   35  26  70 S7        29.88S WCI  29
MITCHELL       MOSUNNY   32  23  69 S16G23    29.94F WCI  21
YANKTON        PTSUNNY   34  21  60 S22G28    30.04F WCI  22
$$

ABBREVIATIONS USED IN REMARKS
   TC - TEMPERATURE IN CELSIUS
  WCI - WIND CHILL INDEX
   HX - HEAT INDEX
  VSB - VISIBILITY




USA.gov is the U.S. government's official web portal to all federal, state and local government web resources and services.